Regional Weather Roundup
Issued by NWS Charleston, SC

Current Version | Previous Version | Graphics & Text | Print | Product List | Glossary On
Versions: 1 2 3 4 5 6 7 8 9 10 11 12 13 14 15 16 17 18 19 20 21 22 23 24 25 26 27 28 29 30 31 32 33 34 35 36 37 38 39 40 41 42 43 44 45 46 47 48 49 50
000 ASUS42 KCHS 241528 RWRCHS REGIONAL WEATHER ROUNDUP NATIONAL WEATHER SERVICE CHARLESTON SC 1100 AM EDT TUE MAY 24 2016 NOTE: "FAIR" INDICATES FEW OR NO CLOUDS BELOW 12,000 FEET WITH NO SIGNIFICANT WEATHER AND/OR OBSTRUCTIONS TO VISIBILITY. NOT ALL STATIONS ARE QUALITY CONTROLLED. USE DATA WITH CAUTION... ESPECIALLY DEWPOINT OBSERVATIONS. SCZ027-030-031-034>040-042>050-241600- ...SOUTHEAST SOUTH CAROLINA... CITY SKY/WX TMP DP RH WIND PRES REMARKS N CHARLESTON MOSUNNY 78 51 38 NE5 30.16S WATERFRONT PRK N/A 73 55 53 CALM 30.14S MOUNT PLEASANT FAIR 75 52 43 CALM 30.17S JOHNS ISLAND PTSUNNY 77 55 47 CALM 30.17S PINOPOLIS N/A 79 54 41 CALM 30.09R MONCKS CORNER FAIR 73 45 35 CALM 30.16S SUMMERVILLE FAIR 77 52 41 CALM 30.18R BEAUFORT MCAS PTSUNNY 77 58 51 CALM 30.17R BEAUFORT ARPT FAIR 75 57 53 NE5 30.16S HILTON HEAD IS MOSUNNY 79 63 57 E7 30.17S WALTERBORO PTSUNNY 77 54 44 CALM 30.18R ALLENDALE FAIR 77 59 53 S7 30.15F ...SOUTHERN MIDLANDS AND PEE DEE... CITY SKY/WX TMP DP RH WIND PRES REMARKS GEORGETOWN FAIR 73 48 40 W3 30.17S KINGSTREE FAIR 73 46 38 S3 30.16F ORANGEBURG SUNNY 76 52 43 CALM 30.17S BARNWELL FAIR 81 63 54 SE3 30.16F AIKEN FAIR 77 57 50 SE6 30.19S MANNING FAIR 72 52 49 W3 30.17S COLUMBIA SUNNY 77 51 40 SE5 30.15F SUMTER SUNNY 74 52 46 SW5 30.15S FLORENCE SUNNY 76 50 40 VRB5 30.16S MYRTLE BEACH SUNNY 75 52 43 W7 30.17S N MYRTLE BEACH SUNNY 75 54 47 NW5 30.15S $$ GAZ063-065-086>088-099>101-113>116-118-119-134>141-150-241600- ...SOUTHEAST GEORGIA... CITY SKY/WX TMP DP RH WIND PRES REMARKS SAVANNAH ARPT MOSUNNY 79 62 56 CALM 30.16R HUNTER AAF MOSUNNY 79 65 61 VRB3 30.14R FORT STEWART SUNNY 80 61 53 CALM 30.13S STATESBORO SUNNY 80 62 53 SW6 30.15S SYLVANIA SUNNY 80 61 51 SW6 30.17S CLAXTON FAIR 80 62 53 S5 30.16R ...CSRA...CENTRAL AND FAR SOUTHEAST GEORGIA... CITY SKY/WX TMP DP RH WIND PRES REMARKS THOMSON MOSUNNY 76 61 59 CALM 30.20S AUGUSTA-BUSH SUNNY 76 59 55 SE5 30.15S AUGUSTA-DANIEL SUNNY 76 57 51 VRB6 30.16F SWAINSBORO FAIR 79 55 44 SW5 30.15F VIDALIA SUNNY 81 57 44 SW6 30.16R EASTMAN FAIR 82 52 35 CALM 30.18R HAZLEHURST FAIR 82 57 42 CALM 30.15S ALMA SUNNY 81 57 43 W6 30.15R WAYCROSS SUNNY 82 58 43 CALM 30.14S JESUP FAIR 77 59 53 W3 30.15S BAXLEY FAIR 82 57 42 CALM 30.15R BRUNSWICK SUNNY 86 57 37 CALM 30.16R SAINT SIMONS SUNNY 80 63 55 SE8 30.14R $$ SCZ027-028-034-036>038-045-046-048>050-GAZ119-141-241600- ...LAKE AND SUPPLEMENTAL COASTAL OBSERVATIONS... STATION/POSITION TIME TEMP WIND PRES WAVE SWELL AIR SEA DIR/SP/G HT/PER HT/PER/DIR (UTC) (F) (DEG/KT/KT) (MB) (FT/S) (FT/S/D) WINYAH BAY 1400 72 260/ 2 1020.0 LAKE MURRAY 1400 74 CALM / 3 1021.0S ACE BASIN NERRS 1400 75 50/ 1 1021.0S FORT PULASKI 1500 73 75 70/ 10/ 11 1021.9R SAPELO ISLAND 1500 80 230/ 2 1021.0S $$ ANZ835-935-AMZ111-154-330-350-352-354-370-450-454-472-241600- ...C-MAN AND BUOY OBSERVATIONS... STATION/POSITION TIME TEMP WIND PRES WAVE SWELL AIR SEA DIR/SP/G HT/PER HT/PER/DIR (UTC) (F) (DEG/KT/KT) (MB) (FT/S) (FT/S/D) BUOY 41004 1350 71 75 350/ 4/ 6 1021.0 2/ 8 2/ 8 BUOY 41008 1450 76 76 70/ 6/ 8 1021.0R 2/ 9 2/120/ 9 FOLLY BEACH CMAN 1500 72 60/ 4/ 5 1021.7R CAPERS NEARSHORE 1508 71 74 60/ 4/ 6 1021.4R FRIPP NEARSHORE 1508 72 75 90/ 8/ 10 1020.8R STATION/POSITION TIME TEMP WIND PRES WAVE SWELL AIR SEA DIR/SP/G HT/PER HT/PER/DIR (UTC) (F) (DEG/KT/KT) (MB) (FT/S) (FT/S/D) 5E ST. MARYS GA 1421 78 N/A 2/ 9 FRYING PAN BUOY 1500 69 76 350/ 6/ 10 1020.6S BUOY 41025 1450 66 71 280/ 12/ 14 1019.3R 4/ 9 3/ 60/ 9 CAPE LOOKOUT NC 1500 69 270/ 10/ 11 1019.6F BUOY 41002 1450 73 78 310/ 8/ 12 1020.1R 5/ 6 5/ 10/ 6 BUOY 41010 1420 77 78 80/ 6/ 8 1020.4R ST AUGUSTINE FL 1500 77 79 130/ 9/ 9 1021.4R $$

USA.gov is the U.S. government's official web portal to all federal, state and local government web resources and services.